Torna al catalogo

FENGYUN 1C DEB

AttivoSSO
NORAD 31692·DEBRIS·🇨🇳 China

Lanciato May 10, 1999 da Taiyuan Satellite Launch Center

Loading…

Prossimi Passaggi (prossime 24 ore)

TLE

In scadenzaSource: Space-Track

Epoca: Sep 6, 2026, 07:00 UTC

1 31692U 99025CDA 26249.29174249  .00002928  00000-0  13178-2 0  9990
2 31692  99.1806 260.6533 0086755  43.7634 317.0375 14.21123170620061

Traccia FENGYUN 1C DEB in tempo reale con AllMySat

Download on the App Store